Flag for Switzerland Weather past 2 weeks in Baar, Zug, Switzerland

Now
77 °F

Mild.


Feels Like: 78 °F
Forecast: 59 / 80 °F
Wind: 5 mph from Southwest

Location: Zurich Town / Ville.

Current Time: Aug 31, 2015 at 10:54:13 PM

Latest Report: Aug 31, 2015 at 10:00 PM


Visibility: N/A

Pressure: 29.88 "Hg

Humidity: 51%

Dew point: 57 °F

Location of BaarLocation

Historic Weather in Baar — Graph

°F

Baar temperature yesterday

Maximum temperature yesterday: 89 °F (at 4:00 PM)
Minimum temperature yesterday: 69 °F (at 8:00 AM)
Average temperature yesterday: 78 °F

Past Weeks' High & Low Weather Summary

 TemperatureHumidityPressure
High89 °F (Aug 30, 4:00 PM)98% (Aug 24, 2:00 AM)30.26 "Hg (Aug 24, 2:00 AM)
Low52 °F (Aug 20, 7:00 AM)23% (Aug 30, 3:00 PM)29.70 "Hg (Aug 24, 2:00 PM)
Average66 °F69%30.01 "Hg
* Reported Aug 16 9:00 PM — Aug 31 9:00 PM, Baar, Weather by CustomWeather, © 2015

Note: Actual official high and low records may vary slightly from our data, if they occured in-between our weather recording intervals... More about our weather records

Advertising

Baar weather history for previous 24 hours

 ConditionsComfort  
Time TempWeatherWind HumidityBarometerVisibility
9:00 PM
Mon, Aug 31
79 °FWarm.7 mph43%29.87 "HgN/A
8:00 PM81 °FPleasantly warm.7 mph37%29.86 "HgN/A
7:00 PM84 °FPleasantly warm.9 mph33%29.85 "HgN/A
6:00 PM86 °FPleasantly warm.10 mph32%29.85 "HgN/A
5:00 PM87 °FPleasantly warm.8 mph35%29.86 "HgN/A
4:00 PM86 °FPleasantly warm.8 mph38%29.88 "HgN/A
3:00 PM85 °FPleasantly warm.6 mph39%29.90 "HgN/A
2:00 PM84 °FPassing clouds.6 mph38%29.92 "HgN/A
1:00 PM83 °FPleasantly warm.3 mph35%29.94 "HgN/A
12:00 PM80 °FWarm.3 mph46%29.96 "HgN/A
11:00 AM76 °FMild.3 mph48%30.00 "HgN/A
10:00 AM73 °FMild.2 mph56%30.01 "HgN/A
9:00 AM69 °FMild.No wind66%30.03 "HgN/A
8:00 AM67 °FMild.1 mph70%30.04 "HgN/A
7:00 AM67 °FMild.1 mph70%30.03 "HgN/A
6:00 AM68 °FMild.1 mph65%30.03 "HgN/A
5:00 AM68 °FMild.2 mph58%30.03 "HgN/A
4:00 AM67 °FMild.1 mph68%30.02 "HgN/A
3:00 AM69 °FMild.2 mph64%30.00 "HgN/A
2:00 AM69 °FMild.1 mph69%30.01 "HgN/A
1:00 AM72 °FMild.1 mph60%30.03 "HgN/A
12:00 AM71 °FMild.No wind61%30.04 "HgN/A
10:00 PM
Sun, Aug 30
75 °FMild.1 mph54%30.02 "HgN/A
Weather by CustomWeather, © 2015

See weather overviewHow to use our weather pages